GW0260 Weather Reports


time (UTC)temp
F
wind
direction
speed
knots
gust
knots
rain 1hr
in
rain 24hr
in
rain mn
in
humidity
%
barometer
mb
20260503200148 55 167 2.6 7.0 0.00 0.00 0.00 46
20260503195644 55 291 2.6 7.0 0.00 0.00 0.00 48
20260503195142 54 274 0.9 2.6 0.00 0.00 0.00 50
20260503194639 53 212 1.7 1.7 0.00 0.00 0.00 50
20260503194134 53 116 0.9 5.2 0.00 0.00 0.00 52
20260503193631 53 187 2.6 4.3 0.00 0.00 0.00 50
20260503193126 53 273 2.6 5.2 0.00 0.00 0.00 50
20260503192622 53 221 6.1 12.2 0.00 0.00 0.00 46
20260503192118 53 256 5.2 9.6 0.00 0.00 0.00 46
20260503191615 52 283 4.3 7.0 0.00 0.00 0.00 48
20260503191112 52 281 2.6 7.0 0.00 0.00 0.00 51
20260503190609 52 121 1.7 2.6 0.00 0.00 0.00 52
20260503190106 53 265 2.6 7.8 0.00 0.00 0.00 49
20260503185603 54 258 1.7 4.3 0.00 0.00 0.00 49
20260503185102 54 276 2.6 5.2 0.00 0.00 0.00 52
20260503184558 53 252 1.7 4.3 0.00 0.00 0.00 52
20260503184055 52 285 1.7 2.6 0.00 0.00 0.00 54
20260503183551 52 256 3.5 4.3 0.00 0.00 0.00 51
20260503183049 51 174 0.9 5.2 0.00 0.00 0.00 53
20260503182547 52 304 0.0 2.6 0.00 0.00 0.00 57
20260503182045 52 55 0.0 1.7 0.00 0.00 0.00 56
20260503181541 53 148 0.0 2.6 0.00 0.00 0.00 54
20260503181038 54 138 0.9 1.7 0.00 0.00 0.00 52
20260503180535 56 286 0.9 5.2 0.00 0.00 0.00 49
20260503180032 56 87 0.9 2.6 0.00 0.00 0.00 52
20260503175530 54 169 0.9 6.1 0.00 0.00 0.00 51
20260503175027 53 84 0.0 1.7 0.00 0.00 0.00 57
20260503174524 51 190 4.3 7.0 0.00 0.00 0.00 56
20260503174020 51 184 2.6 4.3 0.00 0.00 0.00 57
20260503173515 50 314 0.9 5.2 0.00 0.00 0.00 58
20260503173012 50 241 0.9 7.8 0.00 0.00 0.00 57
20260503172510 51 309 0.9 2.6 0.00 0.00 0.00 60
20260503172006 51 227 0.9 1.7 0.00 0.00 0.00 57
20260503171503 51 306 0.9 5.2 0.00 0.00 0.00 58
20260503171000 52 164 2.6 4.3 0.00 0.00 0.00 57
20260503170456 52 282 2.6 4.3 0.00 0.00 0.00 57
20260503150849 46 118 1.7 6.1 0.00 0.00 0.00 74
20260503150345 46 169 0.9 5.2 0.00 0.00 0.00 74
20260503140309 47 327 1.7 4.3 0.00 0.00 0.00 78
20260503131239 48 273 0.0 1.7 0.00 0.00 0.00 76
20260503130736 50 343 0.9 4.3 0.00 0.00 0.00 77
20260503130234 47 128 0.9 1.7 0.00 0.00 0.00 79
20260503120200 46 57 0.0 4.3 0.00 0.00 0.00 81
20260503110627 42 155 0.9 1.7 0.00 0.00 0.00 87
20260503110124 42 6 0.0 0.9 0.00 0.00 0.00 88
20260503081440 44 310 0.0 0.9 0.00 0.00 0.00 84
20260503080937 44 291 0.0 0.9 0.00 0.00 0.00 84
20260503080433 44 293 0.9 0.9 0.00 0.00 0.00 84
20260503072910 43 1 0.0 0.9 0.00 0.00 0.00 83
20260503072407 43 14 0.0 0.0 0.00 0.00 0.00 82
20260503071904 43 23 0.0 0.9 0.00 0.00 0.00 82
20260503071401 43 26 0.0 0.0 0.00 0.00 0.00 81
20260503070856 43 9 0.0 0.9 0.00 0.00 0.00 80
20260503070355 43 10 0.0 0.9 0.00 0.00 0.00 80
20260503060320 45 29 0.0 0.9 0.00 0.00 0.00 76
20260503054808 45 12 0.9 0.9 0.00 0.00 0.00 77
20260503054304 46 194 0.0 0.9 0.00 0.00 0.00 74
20260503053802 45 174 1.7 1.7 0.00 0.00 0.00 74
20260503053300 45 12 0.0 0.9 0.00 0.00 0.00 76
20260503052756 45 288 0.0 1.7 0.00 0.00 0.00 75
20260503052253 45 32 0.0 0.9 0.00 0.00 0.00 75
20260503051748 45 91 0.0 1.7 0.00 0.00 0.00 75
20260503051246 45 58 1.7 1.7 0.00 0.00 0.00 76
20260503050742 45 73 0.0 0.9 0.00 0.00 0.00 78
20260503050239 46 359 0.0 0.9 0.00 0.00 0.00 79
20260503045736 46 47 0.0 1.7 0.00 0.00 0.00 78
20260503045234 46 305 0.9 0.9 0.00 0.00 0.00 77
20260503044730 46 295 0.0 0.9 0.00 0.00 0.00 76
20260503044228 46 334 0.0 1.7 0.00 0.00 0.00 78
20260503043724 46 317 0.0 0.9 0.00 0.00 0.00 81
20260503043222 47 313 0.0 1.7 0.00 0.00 0.00 80
20260503042718 47 337 0.0 0.0 0.00 0.00 0.00 81
20260503042215 46 92 0.0 0.9 0.00 0.00 0.00 82
20260503041710 46 77 0.9 1.7 0.00 0.00 0.00 82
20260503041208 47 323 0.9 0.9 0.00 0.00 0.00 85
20260503040705 47 327 0.9 0.9 0.00 0.00 0.00 86
20260503040203 47 313 0.0 0.9 0.00 0.00 0.00 85
20260503035659 47 287 0.9 0.9 0.00 0.07 0.07 87
20260503035157 47 338 0.0 0.9 0.00 0.07 0.07 90
20260503034654 46 312 0.0 0.9 0.00 0.07 0.07 90
20260503034151 46 340 0.0 0.0 0.00 0.07 0.07 96
20260503033649 46 321 0.0 1.7 0.00 0.07 0.07 99
20260503033146 46 327 0.0 0.9 0.00 0.07 0.07 99
20260503032644 47 356 0.0 0.0 0.00 0.07 0.07 99
20260503032143 48 315 0.0 0.0 0.00 0.07 0.07 99
20260503031639 48 311 0.0 0.0 0.00 0.07 0.07 99
20260503031137 48 297 0.0 0.0 0.00 0.07 0.07 99
20260503030633 48 293 0.0 0.0 0.00 0.07 0.07 99
20260503030130 48 302 0.0 0.0 0.00 0.07 0.07 99
20260503025626 48 313 0.0 0.0 0.00 0.07 0.07 99
20260503025125 48 317 0.0 0.0 0.00 0.07 0.07 99
20260503024621 48 317 0.0 0.0 0.00 0.07 0.07 99
20260503024118 48 318 0.0 0.0 0.00 0.07 0.07 99
20260503023615 48 291 0.0 0.9 0.00 0.07 0.07 99
20260503023112 48 341 0.0 0.0 0.00 0.07 0.07 99
20260503022608 48 345 0.0 0.0 0.00 0.07 0.07 99
20260503022102 48 352 0.0 0.0 0.00 0.07 0.07 99
20260503021600 48 20 0.0 0.0 0.00 0.07 0.07 99
20260503021056 48 20 0.0 0.0 0.00 0.07 0.07 99
20260503020554 48 20 0.0 0.0 0.00 0.07 0.07 99
20260503020050 48 20 0.0 0.0 0.00 0.07 0.07 99
20260503015547 48 20 0.0 0.0 0.00 0.07 0.07 99
20260503015045 48 20 0.0 0.0 0.00 0.07 0.07 99
20260503014540 48 20 0.0 0.0 0.00 0.07 0.07 99
20260503014038 48 20 0.0 0.0 0.00 0.07 0.07 99
20260503013535 48 21 0.0 0.0 0.00 0.07 0.07 99
20260503013033 48 20 0.0 0.9 0.00 0.07 0.07 99
20260503012530 48 338 0.0 0.0 0.00 0.07 0.07 99
20260503012026 48 310 0.0 0.0 0.00 0.07 0.07 99
20260503011523 48 310 0.0 0.0 0.00 0.07 0.07 99
20260503011021 48 310 0.0 0.0 0.00 0.07 0.07 99
20260503010517 48 310 0.0 0.0 0.00 0.07 0.07 99
20260503010015 48 310 0.0 0.0 0.00 0.07 0.07 99
20260503005512 48 310 0.0 0.0 0.00 0.07 0.07 99
20260503005009 48 310 0.0 0.0 0.00 0.07 0.07 99
20260503004504 48 310 0.0 0.9 0.00 0.07 0.07 99
20260503004003 48 308 0.0 0.9 0.00 0.07 0.07 99
20260503003459 48 303 0.0 0.0 0.00 0.07 0.07 99
20260503002956 48 313 0.9 0.9 0.00 0.07 0.07 99
20260503002453 48 306 0.9 1.7 0.00 0.07 0.07 99
20260503001949 48 298 1.7 1.7 0.00 0.07 0.07 99
20260503001446 48 296 0.0 0.0 0.00 0.07 0.07 99
20260503000944 48 296 0.0 0.0 0.00 0.07 0.07 99
20260503000441 48 298 0.0 0.0 0.00 0.07 0.07 99
20260502235938 49 297 0.0 0.9 0.00 0.07 0.07 99
20260502235435 49 320 0.0 0.0 0.00 0.07 0.07 99
20260502234932 49 311 0.0 0.9 0.00 0.07 0.07 99
20260502234429 49 324 0.0 0.9 0.00 0.07 0.07 98
20260502233926 49 278 0.9 0.9 0.00 0.07 0.07 98
20260502233421 49 271 0.0 0.0 0.00 0.07 0.07 97
20260502232919 50 270 0.9 0.9 0.00 0.07 0.07 97
20260502232414 50 260 0.0 1.7 0.00 0.07 0.07 97
20260502231912 50 283 1.7 1.7 0.00 0.07 0.07 97
20260502231409 50 289 0.0 0.9 0.00 0.07 0.07 97
20260502230907 50 290 0.0 0.9 0.00 0.07 0.07 98
20260502230405 50 293 0.0 0.9 0.00 0.07 0.07 98
20260502225902 50 304 0.0 0.9 0.00 0.07 0.07 98
20260502225358 50 301 0.0 0.9 0.00 0.07 0.07 98
20260502224855 50 323 1.7 1.7 0.00 0.07 0.07 98
20260502224351 50 235 0.9 1.7 0.00 0.07 0.07 98
20260502223849 50 282 0.9 0.9 0.00 0.07 0.07 98
20260502223347 50 283 0.0 0.9 0.00 0.07 0.07 98
20260502222844 50 277 0.0 0.0 0.00 0.07 0.07 98
20260502222342 50 247 0.0 0.9 0.00 0.07 0.07 98
20260502221837 50 276 0.0 0.9 0.00 0.07 0.07 97
20260502221334 50 263 0.0 0.9 0.00 0.07 0.07 97
20260502220831 50 286 0.0 0.0 0.00 0.07 0.07 97
20260502220327 50 287 0.0 0.0 0.00 0.07 0.07 96
20260502215823 50 275 0.9 1.7 0.00 0.07 0.07 96
20260502215321 50 274 0.0 0.9 0.00 0.07 0.07 95
20260502214818 50 285 0.9 0.9 0.05 0.07 0.07 95
20260502214315 50 285 0.0 0.0 0.05 0.07 0.07 95
20260502213812 50 285 0.0 0.0 0.00 0.06 0.06 95
20260502213309 50 288 0.9 1.7 0.00 0.06 0.06 94
20260502212808 50 311 0.9 1.7 0.07 0.06 0.06 93
20260502212306 50 270 1.7 4.3 0.07 0.06 0.06 92
20260502211802 50 283 0.0 2.6 0.00 0.05 0.05 92
20260502211258 51 290 1.7 4.3 0.00 0.05 0.05 90
20260502210755 51 282 2.6 4.3 0.00 0.05 0.05 88
20260502210253 51 267 2.6 5.2 0.00 0.05 0.05 86
20260502205750 51 297 2.6 5.2 0.00 0.05 0.05 86
20260502205246 53 242 1.7 5.2 0.00 0.05 0.05 84
20260502204743 55 322 0.0 1.7 0.00 0.05 0.05 75
20260502204240 55 284 1.7 2.6 0.00 0.05 0.05 73
20260502203738 55 30 0.9 4.3 0.00 0.05 0.05 73
20260502203236 57 105 0.0 2.6 0.00 0.05 0.05 70
20260502202730 58 23 0.9 2.6 0.00 0.05 0.05 69
20260502202228 59 289 2.6 5.2 0.00 0.05 0.05 65
20260502201725 60 207 2.6 5.2 0.00 0.05 0.05 64
20260502201222 60 205 3.5 5.2 0.00 0.05 0.05 63
20260502200718 60 121 0.9 5.2 0.00 0.05 0.05 64